Location: Alvis C Story Elementary School
(33.0968°N, 96.6364°W)
Time: 09:13:59
(UTC+00:00)

Cosmos 1939 Rocket - Pass Details

Date: 08 December 2021
Orbit: 531 x 582 km, 97.4° (Epoch: 25 January)

Event Time Altitude Azimuth Distance (km) Brightness Sun altitude
Rises 12:29:21 0° 11° (N) 2,700 6.2 -10.1°
Reaches altitude 10° 12:31:29 10° 12° (NNE) 1,798 5.4 -9.7°
Maximum altitude 12:35:22 88° 104° (ESE) 539 2.8 -8.9°
Drops below altitude 10° 12:39:12 10° 192° (SSW) 1,773 5.6 -8.2°
Sets 12:41:17 0° 192° (SSW) 2,657 6.5 -7.8°
